GEXCL EGGD-EGPH

Flight info

Callsign GEXCL
Flight time 1h 2m
Altitude 26000
Route BCN P69 EXBUM/N0445F280 P69 DIZIM N864 KISWO/N0445F270 DCT AVTIC DCT ANJAK/N0445F280 N38 NOKIN UP16 RIBEL DCT INPIP
Aircraft C25C/M-SDE2E3FGHRWXY/LB1

Departure

Time 2026-04-21 19:41
Airport Bristol Airport (EGGD)

Arrival

Time 2026-04-21 20:43
Airport Edinburgh Airport (EGPH)
Time Latitude Longitude Altitude Speed Heading
2026-04-21 19:29 51.38494 -2.72306 611 ft 0 kts 356°
2026-04-21 19:33 51.38488 -2.72308 611 ft 4 kts
2026-04-21 19:33 51.38462 -2.72303 626 ft 4 kts 356°
2026-04-21 19:33 51.38435 -2.72302 611 ft 4 kts 356°
2026-04-21 19:34 51.38421 -2.72285 616 ft 2 kts 266°
2026-04-21 19:34 51.38422 -2.72258 611 ft 0 kts 266°
2026-04-21 19:37 51.38421 -2.72299 611 ft 9 kts 267°
2026-04-21 19:38 51.38417 -2.72396 612 ft 9 kts 266°
2026-04-21 19:38 51.38413 -2.72496 612 ft 9 kts 266°
2026-04-21 19:38 51.38409 -2.72566 617 ft 9 kts 268°
2026-04-21 19:38 51.38406 -2.72708 613 ft 10 kts 266°
2026-04-21 19:39 51.38400 -2.72856 614 ft 18 kts 264°
2026-04-21 19:39 51.38387 -2.73081 615 ft 21 kts 265°
2026-04-21 19:39 51.38385 -2.73153 615 ft 0 kts 267°
2026-04-21 19:39 51.38384 -2.73191 616 ft 10 kts 269°
2026-04-21 19:40 51.38357 -2.73310 626 ft 11 kts 224°
2026-04-21 19:40 51.38302 -2.73340 616 ft 8 kts 185°
2026-04-21 19:40 51.38223 -2.73283 617 ft 18 kts 113°
2026-04-21 19:40 51.38268 -2.72566 614 ft 113 kts 84°
2026-04-21 19:41 51.38262 -2.71061 1198 ft 154 kts 91°
2026-04-21 19:41 51.38305 -2.69219 2375 ft 177 kts 84°
2026-04-21 19:41 51.38409 -2.67125 3539 ft 200 kts 86°
2026-04-21 19:41 51.38495 -2.64782 4673 ft 218 kts 88°
2026-04-21 19:42 51.38565 -2.62290 5772 ft 236 kts 88°
2026-04-21 19:42 51.38653 -2.59563 6029 ft 258 kts 88°
2026-04-21 19:42 51.38789 -2.56726 6008 ft 241 kts 81°
2026-04-21 19:42 51.39306 -2.54574 6005 ft 193 kts 68°
2026-04-21 19:43 51.40100 -2.52758 6007 ft 209 kts 52°
2026-04-21 19:43 51.41269 -2.51257 6005 ft 219 kts 37°
2026-04-21 19:43 51.42685 -2.50347 6005 ft 227 kts 21°
2026-04-21 19:43 51.44303 -2.50152 5998 ft 235 kts
2026-04-21 19:44 51.45891 -2.50782 5990 ft 243 kts 343°
2026-04-21 19:44 51.47349 -2.52273 5987 ft 250 kts 323°
2026-04-21 19:44 51.48416 -2.54437 5988 ft 254 kts 302°
2026-04-21 19:44 51.49265 -2.56920 5991 ft 254 kts 300°
2026-04-21 19:45 51.49979 -2.59691 5970 ft 288 kts 291°
2026-04-21 19:45 51.50688 -2.62773 5979 ft 296 kts 292°
2026-04-21 19:45 51.51499 -2.65798 5986 ft 294 kts 296°
2026-04-21 19:45 51.52357 -2.68778 5989 ft 293 kts 295°
2026-04-21 19:46 51.53191 -2.71764 5986 ft 293 kts 295°
2026-04-21 19:46 51.54007 -2.74765 5992 ft 293 kts 295°
2026-04-21 19:46 51.54825 -2.77757 5988 ft 293 kts 295°
2026-04-21 19:46 51.55645 -2.80752 5989 ft 293 kts 295°
2026-04-21 19:47 51.56469 -2.83744 6103 ft 293 kts 295°
2026-04-21 19:47 51.57284 -2.86743 6106 ft 292 kts 295°
2026-04-21 19:47 51.58105 -2.89731 6112 ft 292 kts 295°
2026-04-21 19:47 51.58933 -2.92715 6118 ft 292 kts 298°
2026-04-21 19:48 51.60050 -2.95418 6127 ft 290 kts 307°
2026-04-21 19:48 51.61142 -2.98152 6133 ft 291 kts 303°
2026-04-21 19:48 51.62142 -3.00987 6135 ft 292 kts 300°
2026-04-21 19:48 51.63044 -3.03920 6135 ft 293 kts 296°
2026-04-21 19:49 51.63844 -3.06941 6137 ft 294 kts 292°
2026-04-21 19:49 51.64539 -3.10040 6129 ft 295 kts 289°
2026-04-21 19:49 51.65122 -3.13199 6124 ft 294 kts 285°
2026-04-21 19:49 51.65598 -3.16406 6115 ft 295 kts 281°
2026-04-21 19:50 51.65850 -3.18550 6108 ft 295 kts 279°
2026-04-21 19:50 51.66485 -3.22804 6089 ft 293 kts 304°
2026-04-21 19:50 51.67975 -3.24926 6085 ft 285 kts 337°
2026-04-21 19:50 51.69839 -3.25766 6095 ft 276 kts 357°
2026-04-21 19:51 51.71745 -3.26145 6095 ft 276 kts 359°
2026-04-21 19:51 51.73629 -3.26115 6113 ft 267 kts 17°
2026-04-21 19:51 51.75441 -3.25575 7322 ft 261 kts 13°
2026-04-21 19:51 51.77201 -3.25188 9531 ft 258 kts 14°
2026-04-21 19:52 51.79013 -3.24717 11208 ft 267 kts 13°
2026-04-21 19:52 51.80868 -3.24254 12917 ft 273 kts 12°
2026-04-21 19:52 51.82772 -3.23789 14520 ft 280 kts 10°
2026-04-21 19:52 51.84714 -3.23316 15985 ft 285 kts
2026-04-21 19:53 51.86690 -3.22827 17451 ft 290 kts
2026-04-21 19:53 51.88700 -3.22334 18858 ft 295 kts
2026-04-21 19:53 51.90756 -3.21824 19997 ft 302 kts
2026-04-21 19:53 51.92855 -3.21302 21167 ft 308 kts
2026-04-21 19:54 51.94992 -3.20775 22313 ft 313 kts
2026-04-21 19:54 51.97162 -3.20240 23474 ft 318 kts
2026-04-21 19:54 51.99362 -3.19693 24476 ft 322 kts
2026-04-21 19:54 52.01597 -3.19137 25362 ft 328 kts
2026-04-21 19:55 52.03871 -3.18580 26229 ft 332 kts
2026-04-21 19:55 52.06175 -3.18370 27064 ft 334 kts 356°
2026-04-21 19:55 52.08515 -3.18210 27885 ft 338 kts 357°
2026-04-21 19:55 52.10893 -3.18023 28305 ft 350 kts 357°
2026-04-21 19:56 52.13399 -3.17825 28319 ft 370 kts 358°
2026-04-21 19:56 52.16029 -3.17626 28327 ft 387 kts 358°
2026-04-21 19:56 52.18728 -3.17417 28330 ft 400 kts 358°
2026-04-21 19:56 52.21549 -3.17201 28336 ft 411 kts 358°
2026-04-21 19:57 52.24442 -3.16973 28337 ft 420 kts 358°
2026-04-21 19:57 52.30383 -3.16511 28339 ft 434 kts 358°
2026-04-21 19:58 52.36467 -3.16041 28341 ft 439 kts 358°
2026-04-21 19:58 52.39483 -3.15802 28347 ft 428 kts 358°
2026-04-21 19:58 52.42424 -3.15565 28344 ft 419 kts 358°
2026-04-21 19:59 52.48141 -3.15127 28347 ft 405 kts 358°
2026-04-21 19:59 52.53887 -3.14687 28353 ft 422 kts 358°
2026-04-21 20:00 52.59827 -3.14216 28360 ft 425 kts 358°
2026-04-21 20:00 52.65682 -3.13757 28364 ft 424 kts 358°
2026-04-21 20:01 52.71567 -3.12468 28367 ft 432 kts
2026-04-21 20:01 52.77254 -3.09027 28374 ft 440 kts 20°
2026-04-21 20:02 52.81846 -3.05439 28379 ft 440 kts 19°
2026-04-21 20:02 52.87373 -3.01110 28378 ft 440 kts 20°
2026-04-21 20:03 52.92997 -2.97301 28376 ft 435 kts 14°
2026-04-21 20:03 52.98669 -2.93790 28383 ft 434 kts 14°
2026-04-21 20:04 53.04363 -2.90320 28379 ft 438 kts 14°
2026-04-21 20:04 53.10048 -2.86810 28382 ft 427 kts 14°
2026-04-21 20:05 53.15585 -2.83393 28380 ft 426 kts 14°
2026-04-21 20:05 53.21160 -2.79934 28378 ft 429 kts 14°
2026-04-21 20:06 53.26769 -2.76449 28407 ft 431 kts 14°
2026-04-21 20:06 53.32385 -2.72949 28409 ft 431 kts 15°
2026-04-21 20:07 53.37995 -2.69440 28411 ft 430 kts 15°
2026-04-21 20:07 53.43608 -2.65923 28409 ft 430 kts 15°
2026-04-21 20:08 53.49219 -2.62397 28405 ft 430 kts 15°
2026-04-21 20:08 53.54794 -2.58883 28408 ft 431 kts 15°
2026-04-21 20:09 53.60442 -2.55311 28406 ft 431 kts 15°
2026-04-21 20:09 53.66058 -2.51751 28409 ft 431 kts 15°
2026-04-21 20:10 53.71636 -2.48202 28414 ft 431 kts 15°
2026-04-21 20:10 53.77253 -2.44621 28417 ft 431 kts 15°
2026-04-21 20:11 53.82867 -2.41028 28423 ft 431 kts 15°
2026-04-21 20:11 53.88478 -2.37428 28421 ft 431 kts 15°
2026-04-21 20:12 53.94115 -2.34013 28430 ft 427 kts 10°
2026-04-21 20:12 53.99922 -2.32429 28426 ft 420 kts 359°
2026-04-21 20:13 54.05702 -2.32994 28428 ft 414 kts 347°
2026-04-21 20:13 54.11226 -2.35599 28429 ft 411 kts 336°
2026-04-21 20:14 54.16525 -2.39284 28435 ft 414 kts 336°
2026-04-21 20:14 54.21906 -2.43020 28444 ft 421 kts 335°
2026-04-21 20:15 54.27323 -2.46799 28452 ft 426 kts 336°
2026-04-21 20:15 54.32835 -2.50654 28455 ft 429 kts 336°
2026-04-21 20:16 54.38247 -2.54445 28456 ft 411 kts 335°
2026-04-21 20:16 54.43462 -2.58118 28454 ft 400 kts 336°
2026-04-21 20:17 54.48597 -2.61742 28453 ft 405 kts 336°
2026-04-21 20:17 54.53924 -2.65510 28458 ft 422 kts 336°
2026-04-21 20:18 54.58528 -2.68774 28471 ft 432 kts 336°
2026-04-21 20:18 54.62149 -2.71344 28474 ft 417 kts 336°
2026-04-21 20:18 54.64801 -2.73230 28473 ft 408 kts 336°
2026-04-21 20:19 54.70006 -2.76946 28472 ft 410 kts 336°
2026-04-21 20:19 54.75365 -2.80780 28469 ft 423 kts 336°
2026-04-21 20:19 54.78103 -2.82744 28351 ft 430 kts 336°
2026-04-21 20:20 54.80813 -2.84684 27830 ft 408 kts 336°
2026-04-21 20:20 54.83354 -2.86509 27304 ft 384 kts 336°
2026-04-21 20:20 54.85767 -2.88248 26805 ft 368 kts 336°
2026-04-21 20:20 54.88098 -2.89933 26504 ft 357 kts 336°
2026-04-21 20:21 54.90434 -2.91620 26329 ft 377 kts 337°
2026-04-21 20:21 54.92960 -2.93447 25751 ft 405 kts 337°
2026-04-21 20:21 54.95584 -2.95347 25124 ft 412 kts 337°
2026-04-21 20:21 54.98253 -2.97277 24488 ft 417 kts 338°
2026-04-21 20:22 55.00923 -2.99218 23818 ft 411 kts 338°
2026-04-21 20:22 55.05871 -3.02817 22617 ft 365 kts 338°
2026-04-21 20:22 55.08177 -3.04495 22066 ft 356 kts 338°
2026-04-21 20:23 55.10490 -3.06184 21520 ft 365 kts 338°
2026-04-21 20:23 55.12865 -3.07918 20951 ft 374 kts 339°
2026-04-21 20:23 55.15277 -3.09683 20373 ft 376 kts 338°
2026-04-21 20:23 55.17644 -3.11419 19810 ft 359 kts 338°
2026-04-21 20:24 55.19911 -3.13079 19267 ft 347 kts 339°
2026-04-21 20:24 55.22108 -3.14693 18737 ft 338 kts 339°
2026-04-21 20:24 55.24248 -3.16266 18194 ft 329 kts 339°
2026-04-21 20:24 55.26331 -3.17801 17694 ft 321 kts 339°
2026-04-21 20:25 55.28368 -3.19302 17201 ft 315 kts 339°
2026-04-21 20:25 55.30453 -3.20262 16712 ft 307 kts
2026-04-21 20:25 55.32567 -3.20027 16252 ft 304 kts
2026-04-21 20:25 55.34677 -3.19720 15785 ft 305 kts
2026-04-21 20:26 55.36793 -3.19344 15317 ft 306 kts
2026-04-21 20:26 55.38915 -3.19005 14845 ft 307 kts
2026-04-21 20:26 55.41008 -3.18689 14383 ft 304 kts
2026-04-21 20:26 55.43106 -3.18367 13625 ft 300 kts
2026-04-21 20:27 55.45151 -3.18051 12939 ft 291 kts
2026-04-21 20:27 55.47141 -3.17734 12484 ft 283 kts
2026-04-21 20:27 55.49084 -3.17428 12050 ft 277 kts
2026-04-21 20:27 55.50988 -3.17129 11627 ft 272 kts
2026-04-21 20:28 55.52841 -3.16839 11216 ft 263 kts
2026-04-21 20:28 55.54652 -3.16553 10812 ft 261 kts
2026-04-21 20:28 55.56464 -3.16267 10411 ft 262 kts
2026-04-21 20:28 55.58282 -3.15979 9981 ft 262 kts
2026-04-21 20:29 55.60093 -3.15694 9578 ft 260 kts
2026-04-21 20:29 55.61894 -3.15407 9171 ft 260 kts
2026-04-21 20:29 55.63691 -3.15127 8775 ft 259 kts
2026-04-21 20:29 55.65487 -3.14844 8383 ft 259 kts
2026-04-21 20:30 55.67276 -3.14556 7980 ft 258 kts
2026-04-21 20:30 55.69061 -3.14301 7586 ft 257 kts
2026-04-21 20:30 55.70783 -3.15246 7189 ft 270 kts 328°
2026-04-21 20:30 55.71907 -3.17870 7041 ft 267 kts 296°
2026-04-21 20:31 55.72569 -3.20939 6582 ft 272 kts 291°
2026-04-21 20:31 55.73177 -3.24129 6228 ft 272 kts 289°
2026-04-21 20:31 55.73763 -3.27307 5875 ft 271 kts 289°
2026-04-21 20:31 55.74337 -3.30480 5511 ft 269 kts 289°
2026-04-21 20:32 55.74914 -3.33639 5136 ft 269 kts 289°
2026-04-21 20:32 55.75485 -3.36792 4796 ft 267 kts 289°
2026-04-21 20:32 55.76044 -3.39913 4293 ft 265 kts 289°
2026-04-21 20:32 55.76595 -3.42981 4049 ft 253 kts 289°
2026-04-21 20:33 55.77101 -3.45880 4017 ft 242 kts 289°
2026-04-21 20:33 55.77595 -3.48708 4016 ft 238 kts 289°
2026-04-21 20:33 55.78078 -3.51502 4011 ft 236 kts 289°
2026-04-21 20:33 55.78562 -3.54274 4012 ft 234 kts 289°
2026-04-21 20:34 55.79040 -3.57029 4009 ft 233 kts 289°
2026-04-21 20:34 55.79518 -3.59778 4012 ft 233 kts 289°
2026-04-21 20:34 55.79998 -3.62523 4010 ft 232 kts 288°
2026-04-21 20:34 55.79993 -3.65311 4008 ft 231 kts 248°
2026-04-21 20:35 55.79319 -3.67874 4011 ft 227 kts 240°
2026-04-21 20:35 55.78656 -3.70400 4003 ft 226 kts 253°
2026-04-21 20:35 55.78848 -3.73072 4005 ft 220 kts 303°
2026-04-21 20:35 55.79900 -3.74967 4005 ft 216 kts 327°
2026-04-21 20:36 55.81158 -3.76345 4009 ft 208 kts 353°
2026-04-21 20:36 55.82483 -3.75929 4011 ft 190 kts 40°
2026-04-21 20:36 55.83139 -3.74037 4016 ft 182 kts 80°
2026-04-21 20:36 55.83432 -3.71841 4027 ft 184 kts 73°
2026-04-21 20:37 55.83971 -3.69767 4031 ft 186 kts 63°
2026-04-21 20:37 55.84624 -3.67756 3988 ft 190 kts 62°
2026-04-21 20:37 55.85305 -3.65736 3774 ft 181 kts 62°
2026-04-21 20:37 55.85951 -3.63848 3532 ft 176 kts 62°
2026-04-21 20:38 55.86577 -3.62009 3276 ft 172 kts 61°
2026-04-21 20:38 55.87187 -3.60215 3036 ft 164 kts 61°
2026-04-21 20:38 55.87751 -3.58557 2819 ft 151 kts 62°
2026-04-21 20:38 55.88306 -3.56926 2601 ft 157 kts 62°
2026-04-21 20:39 55.88883 -3.55219 2372 ft 164 kts 60°
2026-04-21 20:39 55.89460 -3.53521 2158 ft 150 kts 60°
2026-04-21 20:39 55.89957 -3.52086 1954 ft 131 kts 61°
2026-04-21 20:39 55.90417 -3.50726 1775 ft 125 kts 60°
2026-04-21 20:40 55.90859 -3.49419 1592 ft 122 kts 62°
2026-04-21 20:40 55.91273 -3.48219 1423 ft 105 kts 61°
2026-04-21 20:40 55.91632 -3.47149 1276 ft 98 kts 60°
2026-04-21 20:40 55.91966 -3.46167 1128 ft 85 kts 62°
2026-04-21 20:41 55.92262 -3.45302 1013 ft 79 kts 62°
2026-04-21 20:41 55.92551 -3.44439 926 ft 85 kts 59°
2026-04-21 20:41 55.92854 -3.43524 793 ft 86 kts 60°
2026-04-21 20:41 55.93158 -3.42667 655 ft 81 kts 58°
2026-04-21 20:42 55.93449 -3.41800 483 ft 81 kts 60°
2026-04-21 20:42 55.93753 -3.40952 414 ft 85 kts 60°
2026-04-21 20:42 55.94062 -3.40029 333 ft 87 kts 59°
2026-04-21 20:42 55.94367 -3.39126 202 ft 84 kts 62°
2026-04-21 20:43 55.94646 -3.38255 126 ft 74 kts 62°
2026-04-21 20:43 55.94871 -3.37587 111 ft 46 kts 54°
2026-04-21 20:43 55.95009 -3.37193 106 ft 46 kts 61°
2026-04-21 20:43 55.95196 -3.36622 107 ft 49 kts 60°
2026-04-21 20:44 55.95259 -3.36383 102 ft 0 kts 126°
2026-04-21 20:44 55.95237 -3.36372 102 ft 9 kts 179°
2026-04-21 20:44 55.95175 -3.36332 103 ft 0 kts 149°
2026-04-21 20:45 55.95162 -3.36316 103 ft 4 kts 142°
2026-04-21 20:45 55.95138 -3.36236 103 ft 10 kts 105°
2026-04-21 20:46 55.95122 -3.36124 102 ft 8 kts 117°
2026-04-21 20:46 55.95101 -3.36044 103 ft 11 kts 108°
2026-04-21 20:46 55.95072 -3.35926 103 ft 10 kts 116°
2026-04-21 20:46 55.95035 -3.35836 101 ft 7 kts 161°
2026-04-21 20:47 55.94986 -3.35858 102 ft 12 kts 199°
2026-04-21 20:47 55.94902 -3.35759 102 ft 17 kts 118°
2026-04-21 20:47 55.94851 -3.35588 102 ft 14 kts 118°
2026-04-21 20:47 55.94810 -3.35457 103 ft 11 kts 120°
2026-04-21 20:48 55.94778 -3.35350 104 ft 9 kts 116°
2026-04-21 20:48 55.94742 -3.35235 104 ft 13 kts 121°
2026-04-21 20:48 55.94703 -3.35156 105 ft 5 kts 169°
2026-04-21 20:48 55.94676 -3.35161 104 ft 0 kts 207°
2026-04-21 20:49 55.94676 -3.35162 104 ft 1 kts 207°
2026-04-21 20:49 55.94632 -3.35218 105 ft 9 kts 227°
2026-04-21 20:49 55.94637 -3.35261 105 ft 4 kts 299°
2026-04-21 20:49 55.94643 -3.35281 105 ft 0 kts 299°